Theta_e
304 304 310 316 322 330 331 330 330 329 330 329 327 329 335 340 341 344 345 346 342 341 338 338 338 337 335 335 335 334 330 327 326 325 325 328 329 328 332 334 335 338 339
302 304 308 312 317 321 320 323 325 325 327 326 325 326 326 328 330 333 334 340 339 340 341 337 337 336 336 335 336 331 330 331 329 326 323 323 325 326 330 332 335 336 339
301 301 306 311 313 316 319 322 322 321 320 321 320 317 317 316 315 319 322 328 331 333 337 338 338 337 336 337 338 336 331 330 330 331 327 320 318 322 325 330 334 336 336
301 302 308 311 314 316 317 316 317 318 319 317 315 314 313 311 314 317 321 321 326 329 331 330 333 336 337 337 338 337 334 332 331 329 333 330 325 320 320 327 331 335 335
300 303 310 313 315 316 315 316 316 316 315 316 316 316 315 316 317 317 317 319 322 325 328 328 329 327 332 337 337 337 333 333 329 324 320 321 322 324 321 316 322 328 333
302 305 309 310 310 314 314 313 311 311 317 316 316 315 312 311 312 314 318 318 320 321 324 327 326 326 324 327 330 330 331 332 329 322 321 326 320 320 321 317 319 320 328
302 302 302 305 309 309 308 309 310 309 310 312 312 312 311 311 313 316 316 316 319 320 319 320 320 321 324 327 324 322 320 323 325 326 329 328 325 325 324 323 320 321 326
301 302 303 305 306 307 307 309 307 308 309 309 309 310 312 315 315 314 315 318 319 320 318 318 316 317 320 321 324 324 324 322 323 325 329 326 325 328 321 319 319 316 320
301 302 302 303 304 306 306 307 306 307 308 309 309 312 311 314 314 313 315 318 319 320 317 316 314 314 315 316 317 321 325 327 328 327 328 329 328 323 325 323 321 319 314
301 301 301 301 303 304 305 305 306 307 309 310 310 311 310 313 313 312 311 316 317 317 316 315 313 313 313 313 313 312 316 319 322 323 320 320 321 322 322 323 326 326 323
301 302 302 302 302 302 304 307 307 307 308 308 308 308 309 312 312 310 310 314 314 315 314 314 313 312 312 311 310 311 313 314 315 316 319 320 322 320 321 325 324 326 325
306 304 305 304 303 302 302 302 302 305 306 307 307 307 307 309 308 308 310 313 313 314 315 314 313 313 313 311 310 311 313 312 313 315 316 317 323 323 325 323 321 320 322
302 302 303 302 302 302 302 302 302 302 303 305 306 306 306 306 306 308 309 310 311 312 312 312 313 313 313 311 311 312 312 312 312 313 316 319 321 322 318 319 319 319 320
299 298 298 299 300 302 302 303 303 303 303 304 303 303 303 303 303 305 306 307 310 310 308 309 311 313 313 313 313 313 312 312 313 313 313 314 317 319 319 318 318 318 317
299 299 298 298 299 300 301 302 302 302 303 303 302 302 303 303 303 303 304 305 306 307 308 308 309 310 311 312 311 312 312 311 310 311 312 313 314 316 318 320 320 319 317
298 299 299 299 299 299 300 301 301 301 302 302 302 303 303 304 303 304 304 304 305 305 305 305 308 309 311 307 306 309 309 310 311 310 311 312 314 314 312 312 316 318 316
298 298 298 298 298 298 299 298 299 300 300 300 301 302 302 302 302 303 303 302 302 302 302 302 304 306 306 303 303 305 307 309 310 311 312 313 315 314 314 312 311 314 312
297 297 297 297 297 297 297 296 297 297 297 297 298 299 299 299 299 300 300 301 302 301 302 303 303 303 306 302 301 302 304 306 309 311 312 313 314 315 314 314 315 317 320
296 296 297 296 295 296 296 295 295 295 295 295 295 296 297 297 297 296 296 297 298 300 302 303 303 303 304 300 300 301 304 306 308 311 314 314 314 310 304 315 315 317 315
296 295 295 295 294 294 294 292 293 293 293 294 295 296 296 295 295 295 295 297 298 298 300 301 302 303 302 300 298 300 303 305 309 313 314 308 307 302 303 314 313 309 309
295 294 293 292 293 293 292 291 291 291 293 294 294 294 294 294 295 294 295 295 296 297 298 298 299 303 303 303 298 298 301 307 310 311 312 314 301 300 301 305 311 309 309
294 294 292 292 292 292 291 290 289 291 293 293 292 292 293 293 294 293 293 294 294 295 294 294 296 302 302 300 299 297 296 304 308 308 312 313 298 299 299 304 298 300 305
292 291 290 290 291 290 290 288 290 292 291 291 291 291 292 292 292 292 292 292 293 293 294 297 298 300 301 302 298 296 294 297 305 306 308 302 295 297 298 297 297 302 309
290 290 289 288 287 289 289 290 290 291 290 289 289 290 290 290 291 292 292 292 292 293 294 296 299 299 299 297 298 303 301 300 304 304 305 304 299 299 301 301 303 308 308
289 288 287 286 286 288 288 289 289 289 288 288 288 289 290 290 291 291 292 292 294 295 295 298 299 297 295 296 296 297 307 308 305 304 305 304 304 304 304 304 306 307 306
286 286 286 286 286 287 287 288 288 288 287 287 287 288 289 290 290 291 291 292 292 293 293 293 295 300 296 294 293 294 294 296 295 303 304 302 306 306 306 304 303 304 304
Wind_Speed
11 5 3 5 7 5 8 10 10 7 6 3 3 2 4 2 2 2 4 4 3 5 7 7 6 5 7 9 9 6 6 3 2 2 5 7 7 6 7 7 8 8 8
7 6 7 6 6 8 7 8 9 9 6 4 3 3 2 1 2 2 3 5 2 3 4 5 5 6 6 9 8 6 3 3 4 3 1 8 6 4 7 4 6 10 4
10 5 9 10 7 9 10 9 9 8 5 6 5 3 3 3 3 4 2 3 5 6 3 2 6 7 6 8 9 7 7 6 3 5 5 2 6 6 3 5 6 10 6
9 6 9 11 13 8 7 6 7 8 7 7 4 5 4 2 2 1 1 3 3 5 7 6 4 5 4 7 8 7 8 7 8 2 9 9 5 7 7 4 6 8 8
11 11 14 18 12 10 9 7 7 7 7 7 7 6 4 3 1 0 2 3 3 3 5 6 6 4 3 5 6 6 7 7 4 6 3 4 6 14 15 7 11 12 9
8 6 5 8 9 7 8 7 8 5 7 7 8 8 8 5 2 2 3 3 1 1 3 4 4 5 3 4 5 5 7 9 7 4 5 6 5 7 9 11 12 14 19
5 4 9 9 6 7 7 7 8 8 7 6 5 6 6 6 7 6 5 3 2 2 2 2 3 3 5 5 5 5 6 8 8 9 7 7 8 8 4 8 11 10 7
8 9 8 8 8 8 8 7 8 7 7 7 7 6 7 5 5 6 4 4 4 4 3 3 3 0 4 5 4 4 5 5 7 10 8 7 8 9 9 7 7 9 12
5 10 8 8 8 8 9 9 8 7 7 8 7 7 7 7 7 8 6 5 5 5 6 6 4 2 2 4 5 3 7 6 6 8 9 8 5 5 7 6 7 8 9
6 6 4 2 4 5 5 5 7 11 12 9 8 8 8 8 8 7 8 8 7 7 7 7 6 5 4 4 3 5 5 5 6 5 6 7 7 9 9 9 9 9 12
3 3 3 5 7 5 6 8 7 9 8 8 8 8 8 8 7 7 7 8 7 8 8 8 7 7 6 6 5 5 7 6 6 5 7 9 9 8 8 7 6 7 6
7 7 8 4 4 5 5 6 5 4 6 6 7 7 6 7 7 8 10 8 9 8 9 8 7 7 7 6 7 7 6 6 8 9 6 8 6 8 8 7 7 6 5
10 7 7 6 6 7 7 6 6 4 4 5 6 6 7 7 8 8 8 6 8 8 7 7 8 8 8 7 7 7 7 7 7 9 9 8 7 8 6 6 6 5 5
4 5 6 5 5 5 4 4 5 4 4 3 3 5 7 7 7 7 7 7 7 7 7 8 9 8 8 8 8 8 8 8 9 10 11 11 10 10 11 10 11 8 8
6 4 1 3 4 5 5 5 5 6 5 6 6 7 7 7 7 7 8 9 8 10 11 9 8 8 7 6 8 8 9 9 10 11 12 13 15 17 14 11 14 13 11
5 6 5 4 3 4 5 5 5 6 6 6 7 7 7 7 8 8 9 8 9 10 10 10 11 10 7 10 14 10 7 9 11 12 13 14 19 20 24 27 28 19 14
5 7 6 6 6 6 5 5 5 5 5 6 8 8 9 10 10 10 9 8 8 8 9 9 9 10 8 12 15 16 9 9 12 13 14 14 14 21 21 24 29 26 20
6 7 5 6 7 4 4 5 5 7 9 10 11 11 12 14 14 14 15 15 12 11 11 11 11 9 9 14 14 16 9 8 12 15 16 16 18 21 26 26 24 23 19
7 6 6 6 4 6 6 6 9 10 10 12 13 13 13 12 10 11 12 12 12 12 9 11 11 9 9 13 15 13 10 8 13 13 14 14 17 23 28 24 23 17 10
7 7 5 3 6 7 6 7 12 13 14 13 13 13 12 13 13 13 13 12 11 12 11 13 15 15 14 15 18 16 6 8 8 9 11 14 15 10 11 11 14 14 13
8 3 5 7 9 8 7 13 14 14 13 13 13 13 13 13 12 13 12 11 11 12 13 13 12 11 12 12 15 14 6 7 6 6 6 7 6 5 9 15 13 15 13
5 6 7 10 10 10 9 13 15 13 12 13 14 14 13 11 11 12 11 11 11 11 11 12 12 9 10 12 12 13 11 5 2 8 5 7 14 10 7 11 14 17 13
7 7 8 14 13 11 9 13 14 14 14 14 14 13 13 12 11 12 11 9 9 9 11 9 8 8 7 7 11 12 9 10 2 5 11 6 12 16 8 12 15 12 7
10 10 12 14 15 11 12 13 15 14 14 15 14 12 12 12 11 9 8 8 8 8 8 9 8 6 4 4 4 4 4 5 2 7 8 4 7 1 7 7 5 5 6
11 11 12 13 15 14 14 14 13 14 14 13 12 12 10 11 10 10 9 8 9 8 8 8 6 5 4 4 4 3 4 4 3 5 2 4 6 4 4 5 4 4 5
12 12 13 14 15 15 14 14 13 13 13 13 11 10 9 9 9 8 9 10 15 14 17 16 7 4 6 9 6 3 2 3 3 3 4 3 7 6 6 5 4 3 4
Wind_Direction
250 255 194 122 132 165 161 168 156 169 144 137 148 173 210 184 177 183 281 270 255 237 217 212 219 202 210 230 229 231 235 263 318 26 261 270 258 248 234 242 248 243 238
244 220 166 157 181 162 161 148 141 156 166 148 139 134 129 45 26 66 60 78 100 257 245 219 240 223 219 237 229 209 199 219 165 244 39 296 291 281 244 234 244 254 227
237 209 173 185 173 172 169 162 157 146 138 130 104 74 58 39 41 13 37 23 350 339 341 237 219 232 218 241 246 227 211 233 224 183 106 323 270 322 305 250 227 237 229
252 195 185 183 180 176 156 146 148 148 146 144 119 131 142 130 180 162 265 351 358 329 327 326 318 261 238 238 233 215 218 197 216 199 168 184 213 300 285 319 330 301 251
242 206 188 185 169 156 159 153 145 145 154 151 141 133 135 133 132 160 351 6 355 332 336 340 331 333 283 257 245 221 211 222 192 200 197 225 242 240 242 309 287 307 288
294 194 151 142 138 140 135 136 144 158 156 156 166 153 140 147 103 15 18 355 353 53 28 24 3 331 311 264 247 228 236 237 231 217 217 200 164 198 222 226 242 245 266
51 76 111 101 90 119 136 149 162 167 176 162 157 158 155 161 172 173 180 179 201 176 144 96 18 337 328 307 258 246 221 237 240 238 224 204 218 221 201 215 229 237 267
99 90 99 119 140 157 169 178 177 172 188 184 192 186 186 186 176 171 172 184 188 190 207 177 155 37 333 321 322 265 261 234 240 245 228 217 215 197 197 212 213 236 234
115 152 157 167 174 184 193 188 187 207 208 212 204 200 196 188 189 191 182 187 191 193 196 205 208 234 316 325 326 313 306 291 252 235 241 245 236 212 226 233 207 215 246
45 17 1 230 237 224 221 210 210 204 210 208 207 208 203 199 202 183 197 198 203 202 195 201 209 218 239 263 309 311 294 283 278 251 234 231 231 221 220 220 225 218 229
42 268 233 229 214 221 229 239 234 226 227 220 227 222 221 216 206 205 214 210 199 201 199 203 201 206 213 225 230 253 282 288 283 270 251 245 222 212 215 210 208 210 211
233 210 231 241 302 298 302 279 336 307 280 304 306 273 247 231 224 221 223 218 217 204 206 203 207 209 214 221 223 230 238 260 284 286 271 258 254 239 210 192 179 167 207
329 9 18 20 25 21 29 36 44 4 323 307 282 277 284 307 290 268 249 231 220 225 221 210 210 208 213 214 222 223 225 225 239 260 267 263 244 218 190 182 193 210 200
62 53 38 30 17 26 19 9 349 339 342 342 333 303 289 277 265 256 261 256 249 258 242 225 224 219 211 208 218 222 229 231 235 239 248 254 241 235 214 212 212 210 216
60 55 17 339 334 343 341 335 329 334 330 322 315 291 284 276 265 260 252 247 236 239 238 239 241 239 225 221 215 218 221 226 241 244 245 242 242 238 232 230 230 225 226
4 337 329 339 337 315 305 307 314 325 339 329 312 307 305 300 290 286 285 275 262 254 244 233 226 230 228 227 229 225 226 233 240 248 247 241 243 239 237 235 238 239 217
329 319 316 313 304 308 305 324 334 324 312 289 291 289 285 286 284 280 273 264 258 253 248 239 223 220 222 224 230 235 236 236 243 245 247 247 249 243 241 240 233 224 203
293 308 291 299 295 306 328 316 314 306 298 293 290 287 285 282 281 280 276 273 266 256 251 244 229 228 230 224 233 250 259 253 254 251 250 250 261 257 240 238 225 210 203
283 265 275 284 310 312 301 303 302 289 285 287 287 289 290 292 298 295 295 296 298 286 256 254 250 238 236 236 241 243 250 248 257 258 252 264 284 273 251 201 191 179 152
275 280 282 283 282 283 273 275 294 297 295 295 294 291 284 285 283 284 283 280 283 285 282 274 263 252 248 243 247 239 224 249 257 257 267 292 288 264 103 129 139 145 139
303 290 311 287 284 285 281 296 298 292 293 291 287 288 284 279 277 283 278 274 278 276 270 266 263 264 255 251 232 240 237 238 256 269 280 291 315 276 130 128 138 157 149
309 312 293 296 296 296 294 292 289 292 288 291 291 288 285 280 275 273 274 269 272 278 280 271 267 251 247 238 246 245 232 228 239 304 261 268 162 227 186 155 134 127 123
299 293 292 302 303 303 289 287 290 299 296 293 290 287 279 276 273 272 270 269 266 266 262 259 267 253 243 239 238 253 231 213 159 284 269 263 181 180 185 132 132 113 117
305 304 303 299 298 301 295 290 295 296 295 292 285 280 278 279 272 266 262 266 262 264 273 269 260 240 240 245 254 245 204 203 193 265 253 201 152 203 119 95 94 114 134
304 302 297 298 300 303 299 299 302 297 291 286 285 282 277 274 274 265 261 260 263 256 268 274 256 232 236 246 241 252 239 197 245 282 210 132 127 145 126 100 122 115 119
305 305 304 300 301 302 305 301 296 295 290 289 289 285 286 281 276 274 272 247 253 261 266 262 275 249 221 166 177 117 0 196 236 269 231 144 147 172 152 139 133 129 148